CES0319 ZHHH-ZSQD

Flight info

Callsign CES0319
Flight time 1h 31m
Altitude 29100
Route K0867S1070 BENBI1S BENBI W56 VADMO W4 MUMUN W103 WFG WFG81A
Aircraft B738/M-SDE2E3FGHIRWXY/LB1

Departure

Time 2026-04-20 12:47
Airport Wuhan Tianhe International Airport (ZHHH)

Arrival

Time 2026-04-20 14:18
Airport Qingdao Jiaodong International Airport (ZSQD)
Time Latitude Longitude Altitude Speed Heading
2026-04-20 12:25 30.77648 114.20715 118 ft 0 kts 41°
2026-04-20 12:36 30.77641 114.20709 118 ft 0 kts 40°
2026-04-20 12:36 30.77630 114.20699 118 ft 2 kts 22°
2026-04-20 12:36 30.77615 114.20694 118 ft 2 kts
2026-04-20 12:37 30.77601 114.20695 118 ft 2 kts 347°
2026-04-20 12:37 30.77586 114.20701 118 ft 2 kts 329°
2026-04-20 12:37 30.77576 114.20710 118 ft 0 kts 314°
2026-04-20 12:37 30.77572 114.20715 118 ft 0 kts 311°
2026-04-20 12:38 30.77572 114.20716 118 ft 0 kts 311°
2026-04-20 12:40 30.77572 114.20715 118 ft 0 kts 311°
2026-04-20 12:40 30.77577 114.20709 118 ft 1 kts 311°
2026-04-20 12:40 30.77584 114.20699 118 ft 1 kts 311°
2026-04-20 12:40 30.77593 114.20687 118 ft 2 kts 311°
2026-04-20 12:41 30.77603 114.20675 118 ft 2 kts 311°
2026-04-20 12:41 30.77613 114.20662 118 ft 2 kts 311°
2026-04-20 12:41 30.77636 114.20631 118 ft 7 kts 311°
2026-04-20 12:41 30.77676 114.20580 118 ft 11 kts 312°
2026-04-20 12:42 30.77736 114.20525 118 ft 10 kts 335°
2026-04-20 12:42 30.77762 114.20467 118 ft 8 kts 248°
2026-04-20 12:42 30.77727 114.20420 118 ft 7 kts 222°
2026-04-20 12:42 30.77690 114.20381 118 ft 9 kts 222°
2026-04-20 12:43 30.77615 114.20305 118 ft 18 kts 220°
2026-04-20 12:43 30.77505 114.20195 118 ft 20 kts 222°
2026-04-20 12:43 30.77403 114.20087 118 ft 19 kts 221°
2026-04-20 12:43 30.77305 114.19989 118 ft 17 kts 221°
2026-04-20 12:44 30.77215 114.19896 118 ft 16 kts 222°
2026-04-20 12:44 30.77132 114.19813 118 ft 15 kts 220°
2026-04-20 12:44 30.77124 114.19763 118 ft 4 kts 336°
2026-04-20 12:44 30.77146 114.19750 118 ft 4 kts 320°
2026-04-20 12:45 30.77176 114.19714 118 ft 8 kts 311°
2026-04-20 12:45 30.77216 114.19671 118 ft 5 kts 336°
2026-04-20 12:45 30.77253 114.19671 118 ft 4 kts 26°
2026-04-20 12:45 30.77275 114.19692 118 ft 3 kts 41°
2026-04-20 12:46 30.77293 114.19710 118 ft 3 kts 41°
2026-04-20 12:46 30.77343 114.19761 118 ft 25 kts 40°
2026-04-20 12:46 30.77638 114.20060 118 ft 95 kts 42°
2026-04-20 12:46 30.78334 114.20770 138 ft 164 kts 40°
2026-04-20 12:47 30.79233 114.21699 496 ft 171 kts 43°
2026-04-20 12:47 30.80092 114.22669 1084 ft 178 kts 44°
2026-04-20 12:47 30.81033 114.23646 1845 ft 189 kts 39°
2026-04-20 12:47 30.82195 114.24470 2379 ft 206 kts 28°
2026-04-20 12:48 30.83580 114.25053 2933 ft 222 kts 17°
2026-04-20 12:48 30.85252 114.25397 3000 ft 262 kts
2026-04-20 12:48 30.86949 114.25113 4222 ft 247 kts 343°
2026-04-20 12:48 30.88512 114.24336 5108 ft 247 kts 328°
2026-04-20 12:49 30.89815 114.23055 5825 ft 251 kts 309°
2026-04-20 12:49 30.90916 114.21478 6620 ft 253 kts 305°
2026-04-20 12:49 30.92022 114.19871 7335 ft 258 kts 307°
2026-04-20 12:49 30.93194 114.18274 8075 ft 262 kts 310°
2026-04-20 12:50 30.94406 114.16688 8861 ft 264 kts 311°
2026-04-20 12:50 30.95768 114.15251 9545 ft 268 kts 328°
2026-04-20 12:50 30.97492 114.14490 10241 ft 270 kts 355°
2026-04-20 12:50 30.99357 114.14625 10888 ft 273 kts 14°
2026-04-20 12:51 31.01171 114.15404 11278 ft 287 kts 32°
2026-04-20 12:51 31.02801 114.16823 11678 ft 300 kts 42°
2026-04-20 12:51 31.04381 114.18512 12064 ft 314 kts 44°
2026-04-20 12:51 31.05996 114.20255 12473 ft 327 kts 41°
2026-04-20 12:52 31.07868 114.21870 12830 ft 342 kts 28°
2026-04-20 12:52 31.10097 114.23000 13203 ft 354 kts 19°
2026-04-20 12:52 31.12475 114.23885 13521 ft 368 kts 16°
2026-04-20 12:52 31.15008 114.24761 13833 ft 382 kts 15°
2026-04-20 12:53 31.17586 114.25703 14153 ft 394 kts 17°
2026-04-20 12:53 31.20233 114.26708 14465 ft 406 kts 17°
2026-04-20 12:53 31.22949 114.27751 14732 ft 418 kts 18°
2026-04-20 12:53 31.25729 114.28870 15104 ft 426 kts 18°
2026-04-20 12:54 31.28535 114.30029 15653 ft 429 kts 19°
2026-04-20 12:54 31.31338 114.31229 16233 ft 431 kts 18°
2026-04-20 12:54 31.34218 114.32336 16640 ft 438 kts 15°
2026-04-20 12:54 31.37187 114.33034 17128 ft 440 kts
2026-04-20 12:55 31.40270 114.33386 17679 ft 441 kts
2026-04-20 12:55 31.43304 114.33536 18217 ft 442 kts 359°
2026-04-20 12:55 31.46397 114.33599 18710 ft 445 kts 359°
2026-04-20 12:55 31.49520 114.33631 19083 ft 451 kts 358°
2026-04-20 12:56 31.52666 114.33670 19559 ft 454 kts 359°
2026-04-20 12:56 31.55856 114.33733 20061 ft 456 kts 359°
2026-04-20 12:56 31.59016 114.33813 20549 ft 459 kts 359°
2026-04-20 12:56 31.62240 114.33904 20965 ft 463 kts 359°
2026-04-20 12:57 31.65466 114.34001 21389 ft 466 kts 359°
2026-04-20 12:57 31.68723 114.34100 21834 ft 469 kts 359°
2026-04-20 12:57 31.71981 114.34198 22272 ft 471 kts 358°
2026-04-20 12:57 31.75283 114.34298 22676 ft 474 kts 358°
2026-04-20 12:58 31.78587 114.34399 23144 ft 476 kts 358°
2026-04-20 12:58 31.81919 114.34501 23611 ft 478 kts 358°
2026-04-20 12:58 31.85258 114.34604 23916 ft 483 kts 358°
2026-04-20 12:58 31.88587 114.34707 24451 ft 483 kts 358°
2026-04-20 12:59 31.91960 114.34811 24882 ft 486 kts 358°
2026-04-20 12:59 31.95352 114.34915 25261 ft 489 kts 357°
2026-04-20 12:59 31.98781 114.35020 25756 ft 489 kts 357°
2026-04-20 12:59 32.02159 114.35125 26376 ft 486 kts 356°
2026-04-20 13:00 32.05513 114.35226 27064 ft 482 kts 356°
2026-04-20 13:00 32.08838 114.35328 27709 ft 478 kts 356°
2026-04-20 13:00 32.12161 114.35435 28387 ft 473 kts 355°
2026-04-20 13:00 32.15392 114.35539 29007 ft 468 kts 356°
2026-04-20 13:01 32.18662 114.35647 29192 ft 471 kts 355°
2026-04-20 13:01 32.25274 114.35857 29220 ft 474 kts 355°
2026-04-20 13:02 32.31894 114.36244 29222 ft 478 kts 358°
2026-04-20 13:02 32.38502 114.36882 29223 ft 479 kts 359°
2026-04-20 13:03 32.45159 114.37565 29230 ft 478 kts 359°
2026-04-20 13:03 32.51816 114.38215 29233 ft 480 kts 359°
2026-04-20 13:04 32.58440 114.38843 29230 ft 478 kts 358°
2026-04-20 13:04 32.65097 114.39457 29236 ft 479 kts 358°
2026-04-20 13:05 32.71749 114.40073 29236 ft 479 kts 358°
2026-04-20 13:05 32.78375 114.40694 29238 ft 478 kts 358°
2026-04-20 13:06 32.85038 114.41311 29245 ft 480 kts 358°
2026-04-20 13:06 32.91720 114.41933 29248 ft 480 kts 358°
2026-04-20 13:07 32.98344 114.42559 29250 ft 480 kts 358°
2026-04-20 13:07 33.05041 114.43188 29253 ft 478 kts 358°
2026-04-20 13:08 33.11652 114.43806 29257 ft 478 kts 358°
2026-04-20 13:08 33.18293 114.44433 29255 ft 478 kts 358°
2026-04-20 13:09 33.24909 114.45051 29253 ft 476 kts 358°
2026-04-20 13:09 33.31546 114.45677 29258 ft 475 kts 358°
2026-04-20 13:10 33.38124 114.46300 29253 ft 473 kts 358°
2026-04-20 13:10 33.44678 114.46923 29258 ft 472 kts 357°
2026-04-20 13:11 33.51207 114.47549 29253 ft 469 kts 357°
2026-04-20 13:11 33.57705 114.48148 29253 ft 471 kts 357°
2026-04-20 13:12 33.64236 114.48760 29256 ft 467 kts 357°
2026-04-20 13:12 33.70718 114.49365 29257 ft 466 kts 356°
2026-04-20 13:13 33.77211 114.49967 29263 ft 468 kts 357°
2026-04-20 13:13 33.83662 114.50575 29251 ft 466 kts 357°
2026-04-20 13:14 33.90169 114.51180 29256 ft 466 kts 357°
2026-04-20 13:14 33.96567 114.51791 29260 ft 462 kts 356°
2026-04-20 13:15 34.02968 114.52395 29253 ft 459 kts 356°
2026-04-20 13:15 34.09387 114.52997 29251 ft 464 kts 357°
2026-04-20 13:16 34.15808 114.53607 29251 ft 461 kts 356°
2026-04-20 13:16 34.22214 114.54216 29251 ft 461 kts 356°
2026-04-20 13:17 34.28616 114.54820 29252 ft 464 kts 356°
2026-04-20 13:17 34.35025 114.55441 29251 ft 463 kts 356°
2026-04-20 13:18 34.41464 114.56054 29253 ft 463 kts 356°
2026-04-20 13:18 34.47881 114.56660 29251 ft 462 kts 356°
2026-04-20 13:19 34.54267 114.57271 29251 ft 460 kts 356°
2026-04-20 13:19 34.60663 114.57877 29251 ft 461 kts 356°
2026-04-20 13:20 34.67104 114.58481 29252 ft 466 kts 356°
2026-04-20 13:20 34.73563 114.59094 29251 ft 463 kts 356°
2026-04-20 13:21 34.79990 114.59711 29251 ft 461 kts 356°
2026-04-20 13:21 34.86365 114.60318 29251 ft 462 kts 356°
2026-04-20 13:22 34.92787 114.60930 29252 ft 464 kts 356°
2026-04-20 13:22 34.99201 114.61545 29250 ft 461 kts 356°
2026-04-20 13:23 35.05621 114.62159 29254 ft 464 kts 356°
2026-04-20 13:23 35.12050 114.62778 29253 ft 465 kts 356°
2026-04-20 13:24 35.18479 114.63404 29249 ft 463 kts 356°
2026-04-20 13:24 35.24918 114.64027 29251 ft 468 kts 355°
2026-04-20 13:25 35.31385 114.64645 29250 ft 464 kts 356°
2026-04-20 13:25 35.37823 114.65270 29250 ft 464 kts 356°
2026-04-20 13:26 35.44280 114.65889 29245 ft 466 kts 356°
2026-04-20 13:26 35.50766 114.66516 29249 ft 470 kts 356°
2026-04-20 13:27 35.57252 114.67152 29250 ft 465 kts 356°
2026-04-20 13:27 35.63701 114.67780 29248 ft 468 kts 356°
2026-04-20 13:28 35.70176 114.68410 29247 ft 469 kts 356°
2026-04-20 13:28 35.76667 114.69044 29248 ft 469 kts 356°
2026-04-20 13:29 35.83165 114.69679 29245 ft 468 kts 356°
2026-04-20 13:29 35.89645 114.70315 29249 ft 469 kts 355°
2026-04-20 13:30 35.96153 114.70950 29248 ft 467 kts 355°
2026-04-20 13:30 36.02643 114.71588 29248 ft 470 kts 355°
2026-04-20 13:31 36.09135 114.72219 29250 ft 471 kts 355°
2026-04-20 13:31 36.15674 114.72864 29249 ft 467 kts 356°
2026-04-20 13:32 36.22155 114.74163 29244 ft 486 kts
2026-04-20 13:32 36.25311 114.75820 29247 ft 502 kts 21°
2026-04-20 13:32 36.28209 114.78256 29247 ft 511 kts 32°
2026-04-20 13:33 36.33188 114.84727 29245 ft 527 kts 47°
2026-04-20 13:33 36.36735 114.92764 29244 ft 542 kts 68°
2026-04-20 13:34 36.38833 115.01704 29248 ft 543 kts 72°
2026-04-20 13:34 36.40672 115.10810 29248 ft 543 kts 73°
2026-04-20 13:35 36.42530 115.19849 29239 ft 544 kts 71°
2026-04-20 13:35 36.45064 115.28600 29247 ft 540 kts 63°
2026-04-20 13:36 36.48148 115.37081 29254 ft 539 kts 59°
2026-04-20 13:36 36.51302 115.45470 29247 ft 536 kts 60°
2026-04-20 13:37 36.54365 115.53889 29248 ft 536 kts 61°
2026-04-20 13:37 36.57379 115.62390 29245 ft 541 kts 61°
2026-04-20 13:38 36.60378 115.70922 29239 ft 537 kts 62°
2026-04-20 13:38 36.63388 115.79502 29241 ft 542 kts 62°
2026-04-20 13:39 36.66405 115.88110 29241 ft 541 kts 62°
2026-04-20 13:39 36.69395 115.96661 29237 ft 542 kts 62°
2026-04-20 13:40 36.72391 116.05255 29240 ft 543 kts 61°
2026-04-20 13:40 36.75363 116.13847 29234 ft 544 kts 62°
2026-04-20 13:41 36.78276 116.22593 29238 ft 545 kts 65°
2026-04-20 13:41 36.80220 116.31762 29239 ft 552 kts 78°
2026-04-20 13:42 36.80963 116.41290 29232 ft 556 kts 85°
2026-04-20 13:42 36.81367 116.55737 29233 ft 556 kts 87°
2026-04-20 13:43 36.81583 116.65372 29236 ft 558 kts 87°
2026-04-20 13:43 36.81838 116.74990 29239 ft 558 kts 86°
2026-04-20 13:44 36.82126 116.84651 29237 ft 558 kts 87°
2026-04-20 13:44 36.82415 116.94347 29237 ft 560 kts 87°
2026-04-20 13:45 36.82717 117.04036 29240 ft 561 kts 86°
2026-04-20 13:45 36.82995 117.13670 29241 ft 560 kts 87°
2026-04-20 13:46 36.83072 117.23389 29238 ft 561 kts 92°
2026-04-20 13:46 36.82409 117.33075 29240 ft 562 kts 97°
2026-04-20 13:47 36.81388 117.42649 29230 ft 561 kts 98°
2026-04-20 13:47 36.80855 117.47500 28928 ft 563 kts 98°
2026-04-20 13:47 36.80342 117.52274 28431 ft 561 kts 97°
2026-04-20 13:48 36.79843 117.57069 27929 ft 558 kts 97°
2026-04-20 13:48 36.79357 117.61875 27424 ft 557 kts 97°
2026-04-20 13:48 36.78885 117.66640 26919 ft 558 kts 97°
2026-04-20 13:48 36.78413 117.71442 26412 ft 558 kts 96°
2026-04-20 13:49 36.77940 117.76280 25904 ft 558 kts 97°
2026-04-20 13:49 36.77476 117.81021 25408 ft 558 kts 96°
2026-04-20 13:49 36.77007 117.85795 24908 ft 556 kts 96°
2026-04-20 13:49 36.76533 117.90595 24403 ft 550 kts 96°
2026-04-20 13:50 36.76071 117.95250 23915 ft 542 kts 96°
2026-04-20 13:50 36.75608 117.99892 23434 ft 535 kts 95°
2026-04-20 13:50 36.75153 118.04428 22974 ft 528 kts 95°
2026-04-20 13:50 36.74703 118.08890 22773 ft 520 kts 96°
2026-04-20 13:51 36.74248 118.13395 22654 ft 525 kts 95°
2026-04-20 13:51 36.73793 118.17880 22531 ft 525 kts 96°
2026-04-20 13:51 36.73331 118.22414 22414 ft 524 kts 95°
2026-04-20 13:51 36.72883 118.26917 22298 ft 523 kts 95°
2026-04-20 13:52 36.72458 118.31368 22181 ft 522 kts 95°
2026-04-20 13:52 36.72043 118.35842 22054 ft 520 kts 94°
2026-04-20 13:52 36.71632 118.40308 21934 ft 518 kts 95°
2026-04-20 13:52 36.71220 118.44759 21821 ft 516 kts 94°
2026-04-20 13:53 36.70810 118.49148 21708 ft 515 kts 94°
2026-04-20 13:53 36.70392 118.53581 21596 ft 515 kts 94°
2026-04-20 13:53 36.69974 118.57966 21487 ft 514 kts 94°
2026-04-20 13:53 36.69548 118.62374 21362 ft 512 kts 94°
2026-04-20 13:54 36.69118 118.66783 21242 ft 509 kts 95°
2026-04-20 13:54 36.68696 118.71114 21120 ft 509 kts 94°
2026-04-20 13:54 36.68276 118.75470 21009 ft 508 kts 94°
2026-04-20 13:54 36.67851 118.79847 20889 ft 506 kts 95°
2026-04-20 13:55 36.67429 118.84159 20777 ft 505 kts 94°
2026-04-20 13:55 36.67005 118.88504 20666 ft 504 kts 94°
2026-04-20 13:55 36.66586 118.92791 20553 ft 502 kts 95°
2026-04-20 13:55 36.66160 118.97115 20427 ft 501 kts 94°
2026-04-20 13:56 36.65733 119.01390 20317 ft 499 kts 95°
2026-04-20 13:56 36.65278 119.05700 20206 ft 501 kts 96°
2026-04-20 13:56 36.64688 119.09927 20082 ft 500 kts 100°
2026-04-20 13:56 36.63805 119.14068 19965 ft 498 kts 107°
2026-04-20 13:57 36.62618 119.18121 19815 ft 498 kts 112°
2026-04-20 13:57 36.61253 119.22098 19344 ft 499 kts 114°
2026-04-20 13:57 36.59827 119.25969 18660 ft 497 kts 115°
2026-04-20 13:57 36.58349 119.29850 17930 ft 495 kts 115°
2026-04-20 13:58 36.56871 119.33697 17240 ft 491 kts 115°
2026-04-20 13:58 36.55434 119.37465 16927 ft 477 kts 114°
2026-04-20 13:58 36.54056 119.41119 16771 ft 461 kts 115°
2026-04-20 13:58 36.52728 119.44675 16379 ft 452 kts 114°
2026-04-20 13:59 36.51419 119.48205 15742 ft 450 kts 114°
2026-04-20 13:59 36.50120 119.51721 15058 ft 447 kts 114°
2026-04-20 13:59 36.48836 119.55213 14380 ft 444 kts 114°
2026-04-20 13:59 36.47576 119.58639 13823 ft 436 kts 113°
2026-04-20 14:00 36.46333 119.62015 13519 ft 422 kts 113°
2026-04-20 14:00 36.45126 119.65285 13259 ft 408 kts 114°
2026-04-20 14:00 36.43968 119.68418 13009 ft 395 kts 114°
2026-04-20 14:00 36.42836 119.71479 12745 ft 383 kts 114°
2026-04-20 14:01 36.41737 119.74459 12369 ft 376 kts 113°
2026-04-20 14:01 36.40666 119.77367 11971 ft 366 kts 113°
2026-04-20 14:01 36.39630 119.80178 11605 ft 351 kts 113°
2026-04-20 14:01 36.38633 119.82883 11222 ft 339 kts 112°
2026-04-20 14:02 36.37684 119.85460 10845 ft 328 kts 112°
2026-04-20 14:02 36.36747 119.87999 10457 ft 317 kts 112°
2026-04-20 14:02 36.35842 119.90454 10081 ft 306 kts 112°
2026-04-20 14:02 36.34978 119.92796 9706 ft 296 kts 112°
2026-04-20 14:03 36.34123 119.95106 9328 ft 293 kts 112°
2026-04-20 14:03 36.33309 119.97378 8967 ft 291 kts 108°
2026-04-20 14:03 36.32735 119.99763 8610 ft 286 kts 98°
2026-04-20 14:03 36.32368 120.02161 8353 ft 280 kts 96°
2026-04-20 14:04 36.32058 120.04486 8102 ft 274 kts 95°
2026-04-20 14:04 36.31735 120.06802 7847 ft 270 kts 96°
2026-04-20 14:04 36.31393 120.09078 7593 ft 265 kts 97°
2026-04-20 14:04 36.31049 120.11301 7341 ft 261 kts 97°
2026-04-20 14:05 36.30713 120.13483 7089 ft 257 kts 96°
2026-04-20 14:05 36.30384 120.15632 6842 ft 253 kts 97°
2026-04-20 14:05 36.30048 120.17778 6587 ft 250 kts 97°
2026-04-20 14:05 36.29723 120.19859 6343 ft 247 kts 96°
2026-04-20 14:06 36.29401 120.21921 6088 ft 244 kts 97°
2026-04-20 14:06 36.28949 120.23948 5824 ft 244 kts 111°
2026-04-20 14:06 36.27907 120.25610 5574 ft 247 kts 144°
2026-04-20 14:06 36.26363 120.26470 5342 ft 247 kts 163°
2026-04-20 14:07 36.24703 120.27058 5088 ft 246 kts 163°
2026-04-20 14:07 36.23083 120.27665 4836 ft 245 kts 163°
2026-04-20 14:07 36.21456 120.28303 4579 ft 243 kts 162°
2026-04-20 14:07 36.19844 120.28938 4324 ft 242 kts 162°
2026-04-20 14:08 36.18240 120.29565 4064 ft 240 kts 163°
2026-04-20 14:08 36.16658 120.30180 3911 ft 236 kts 163°
2026-04-20 14:08 36.15105 120.30784 3901 ft 236 kts 163°
2026-04-20 14:08 36.13514 120.31399 3895 ft 238 kts 166°
2026-04-20 14:09 36.11894 120.31741 3881 ft 234 kts 185°
2026-04-20 14:09 36.10407 120.31161 3888 ft 218 kts 221°
2026-04-20 14:09 36.09426 120.29787 3916 ft 213 kts 244°
2026-04-20 14:09 36.08836 120.28143 3899 ft 209 kts 255°
2026-04-20 14:10 36.08403 120.26413 3903 ft 208 kts 257°
2026-04-20 14:10 36.07995 120.24706 3909 ft 209 kts 256°
2026-04-20 14:10 36.07557 120.22999 3917 ft 203 kts 256°
2026-04-20 14:10 36.07222 120.21383 3894 ft 187 kts 268°
2026-04-20 14:11 36.07430 120.19876 3903 ft 177 kts 303°
2026-04-20 14:11 36.08314 120.18863 3911 ft 175 kts 330°
2026-04-20 14:11 36.09405 120.18173 3897 ft 175 kts 335°
2026-04-20 14:11 36.10526 120.17599 3898 ft 175 kts 339°
2026-04-20 14:12 36.11658 120.17110 3892 ft 165 kts 340°
2026-04-20 14:12 36.12704 120.16692 3887 ft 154 kts 341°
2026-04-20 14:12 36.13736 120.16285 3902 ft 155 kts 341°
2026-04-20 14:12 36.14778 120.15876 3909 ft 157 kts 341°
2026-04-20 14:13 36.15788 120.15484 3899 ft 156 kts 341°
2026-04-20 14:13 36.16836 120.15076 3720 ft 157 kts 340°
2026-04-20 14:13 36.17863 120.14675 3455 ft 154 kts 341°
2026-04-20 14:13 36.18891 120.14277 3266 ft 155 kts 341°
2026-04-20 14:14 36.19918 120.13878 3033 ft 155 kts 341°
2026-04-20 14:14 36.20938 120.13480 2811 ft 154 kts 341°
2026-04-20 14:14 36.21961 120.13080 2602 ft 156 kts 341°
2026-04-20 14:14 36.23001 120.12676 2379 ft 155 kts 341°
2026-04-20 14:15 36.24029 120.12276 2161 ft 153 kts 341°
2026-04-20 14:15 36.25042 120.11882 1946 ft 152 kts 341°
2026-04-20 14:15 36.26046 120.11489 1773 ft 155 kts 340°
2026-04-20 14:15 36.27066 120.11092 1495 ft 146 kts 341°
2026-04-20 14:16 36.28020 120.10722 1329 ft 146 kts 340°
2026-04-20 14:16 36.29013 120.10334 1124 ft 149 kts 341°
2026-04-20 14:16 36.29981 120.09956 914 ft 144 kts 341°
2026-04-20 14:16 36.30908 120.09596 717 ft 137 kts 340°
2026-04-20 14:17 36.31835 120.09234 547 ft 140 kts 340°
2026-04-20 14:17 36.32762 120.08858 314 ft 140 kts 341°
2026-04-20 14:17 36.33707 120.08499 160 ft 143 kts 343°
2026-04-20 14:17 36.34651 120.08103 61 ft 138 kts 343°
2026-04-20 14:18 36.35439 120.07817 46 ft 87 kts 344°
2026-04-20 14:18 36.35824 120.07669 42 ft 31 kts 342°
2026-04-20 14:18 36.36036 120.07588 39 ft 32 kts 343°
2026-04-20 14:18 36.36221 120.07558 35 ft 4 kts
2026-04-20 14:19 36.36253 120.07561 34 ft 4 kts
2026-04-20 14:19 36.36290 120.07567 33 ft 5 kts
2026-04-20 14:19 36.36331 120.07575 32 ft 6 kts
2026-04-20 14:19 36.36375 120.07584 32 ft 6 kts 10°
2026-04-20 14:20 36.36417 120.07595 32 ft 5 kts 21°
2026-04-20 14:20 36.36444 120.07624 31 ft 4 kts 63°
2026-04-20 14:20 36.36454 120.07659 31 ft 4 kts 72°
2026-04-20 14:20 36.36462 120.07693 31 ft 3 kts 72°
2026-04-20 14:21 36.36475 120.07740 31 ft 7 kts 72°
2026-04-20 14:21 36.36478 120.07801 32 ft 5 kts 110°
2026-04-20 14:21 36.36447 120.07829 32 ft 6 kts 167°
2026-04-20 14:21 36.36394 120.07848 32 ft 10 kts 161°
2026-04-20 14:22 36.36318 120.07880 33 ft 10 kts 162°
2026-04-20 14:22 36.36251 120.07906 33 ft 9 kts 162°
2026-04-20 14:22 36.36196 120.07929 34 ft 7 kts 161°
2026-04-20 14:22 36.36153 120.07947 35 ft 5 kts 161°
2026-04-20 14:23 36.36121 120.07960 35 ft 4 kts 161°
2026-04-20 14:23 36.36083 120.07975 37 ft 10 kts 162°
2026-04-20 14:23 36.36016 120.08002 39 ft 8 kts 162°
2026-04-20 14:23 36.35980 120.08015 41 ft 2 kts 164°
2026-04-20 14:24 36.35972 120.08018 42 ft 0 kts 164°
2026-04-20 14:24 36.35961 120.08021 42 ft 4 kts 164°
2026-04-20 14:24 36.35915 120.08038 44 ft 6 kts 164°
2026-04-20 14:24 36.35884 120.08054 45 ft 3 kts 143°
2026-04-20 14:25 36.35871 120.08073 45 ft 3 kts 112°
2026-04-20 14:25 36.35876 120.08123 47 ft 7 kts 70°
2026-04-20 14:25 36.35888 120.08167 48 ft 3 kts 72°
2026-04-20 14:25 36.35887 120.08193 48 ft 2 kts 108°
2026-04-20 14:26 36.35878 120.08210 48 ft 2 kts 131°
2026-04-20 14:26 36.35868 120.08225 49 ft 2 kts 132°
2026-04-20 14:26 36.35858 120.08238 49 ft 2 kts 132°
2026-04-20 14:26 36.35846 120.08255 48 ft 3 kts 132°
2026-04-20 14:27 36.35838 120.08265 48 ft 1 kts 132°
2026-04-20 14:27 36.35837 120.08266 48 ft 0 kts 132°